LILACSAT-2

Last updated on Thu Sep 10 2026 00:03:12 GMT+0000 (Coordinated Universal Time)

1 40908U 15049K 26252.62697367 .00015533 00000+0 24062-3 0 9996 2 40908 97.4573 292.8042 0004703 313.3760 46.7102 15.54115429608856
UTC large
Height (km)
Speed (km/s)
/
Latitude / Longitude
Inclination (degrees)
Orbital Period (minutes)
Azimuth
Elevation
Range (km)
Doppler Factor

Next 0 passes for location: London (51.5072 / 0.1276)

No passes found over London.
LILACSAT-2